Location: Anuling
(14.1239°N, 120.8922°E)
Time: 04:45:10
(UTC+00:00)

Cosmos 2082 Rocket - Pass Details

Date: 14 January 2026
Orbit: 832 x 853 km, 71.0° (Epoch: 11 February)

Event Time Altitude Azimuth Distance (km) Brightness Sun altitude
Rises 11:21:47 0° 177° (S) 3,366 5.5 -22.6°
Reaches altitude 10° 11:24:25 10° 168° (SSE) 2,432 4.6 -23.2°
Enters shadow 11:27:40 28° 139° (SE) 1,510 3.3 -23.9°
